Weather History for Orr, MN

Change the Weather History Date:

Tuesday, March 12, 2013

  Actual Average Record
Temperature  
Mean Temperature 12 °F -  
Max Temperature 21 °F 28 °F 51 °F (2007)
Min Temperature 3 °F 7 °F -20 °F (2009)
Degree Days  
Heating Degree Days 53    
Moisture  
Dew Point 6 °F    
Average Humidity 73    
Maximum Humidity 92    
Minimum Humidity 42    
Precipitation  
Precipitation 0.00 in - - ()
Sea Level Pressure  
Sea Level Pressure 29.91 in    
Wind  
Wind Speed 2 mph (NW)    
Max Wind Speed 9 mph    
Max Gust Speed 16 mph    
Visibility 10 miles    
Events Snow    
Averages and records for this station are not official NWS values.
T = Trace of Precipitation, MM = Missing Value Source: NWS Daily Summary

Daily Weather History Graph

Daily Weather History Graph

Search for Another Location

Airport:

Trip Planner

Search our weather history database for the weather conditions in past years. The results will help you decide how hot, cold, wet, or windy it might be!

Date:

Astronomy

Mar. 12, 2013 Rise Set
Actual Time 7:30 AM CDT 7:12 PM CDT
Civil Twilight 6:59 AM CDT 7:43 PM CDT
Nautical Twilight 6:23 AM CDT 8:19 PM CDT
Astronomical Twilight 5:46 AM CDT 8:56 PM CDT
Moon 7:30 AM CDT (3/12) 8:38 PM CDT (3/12)
Length of Visible Light 12h 44m
Length of Day
11h 42m
New Moon, 1% of the Moon is Illuminated
Mar 12
New Moon
Mar 19
First Quarter
Mar 27
Full
Apr 2
Last Quarter
Apr 10
New

Hourly Weather History & Observations

Time (CDT) Temp. Windchill Dew Point Humidity Pressure Visibility Wind Dir Wind Speed Gust Speed Precip Events Conditions
12:13 AM 15.8 °F - 12.2 °F 86% 29.75 in 10.0 mi Calm Calm - N/A   Overcast
12:33 AM 15.8 °F - 12.2 °F 86% 29.75 in 10.0 mi Calm Calm - N/A   Overcast
12:53 AM 15.8 °F - 12.2 °F 86% 29.74 in 10.0 mi Calm Calm - N/A   Overcast
1:13 AM 15.8 °F - 12.2 °F 86% 29.74 in 10.0 mi Calm Calm - N/A   Overcast
1:33 AM 15.8 °F - 12.2 °F 86% 29.74 in 10.0 mi Calm Calm - N/A   Overcast
1:53 AM 15.8 °F - 10.4 °F 79% 29.74 in 10.0 mi Calm Calm - N/A   Overcast
2:13 AM 12.2 °F - 10.4 °F 92% 29.74 in 10.0 mi Calm Calm - N/A   Scattered Clouds
2:33 AM 12.2 °F - 10.4 °F 92% 29.75 in 10.0 mi Calm Calm - N/A   Clear
2:53 AM 12.2 °F - 8.6 °F 85% 29.75 in 10.0 mi Calm Calm - N/A   Clear
3:13 AM 12.2 °F 6.1 °F 8.6 °F 85% 29.75 in 10.0 mi NW 3.5 mph - N/A   Clear
3:33 AM 10.4 °F 4.0 °F 8.6 °F 92% 29.75 in 10.0 mi NW 3.5 mph - N/A   Clear
3:53 AM 10.4 °F - 6.8 °F 85% 29.75 in 10.0 mi Calm Calm - N/A   Clear
4:13 AM 8.6 °F - 6.8 °F 92% 29.76 in 10.0 mi Calm Calm - N/A   Clear
4:33 AM 10.4 °F - 6.8 °F 85% 29.76 in 10.0 mi Calm Calm - N/A   Clear
4:53 AM 10.4 °F 2.2 °F 6.8 °F 85% 29.77 in 10.0 mi NW 4.6 mph - N/A   Mostly Cloudy
5:13 AM 10.4 °F - 6.8 °F 85% 29.78 in 10.0 mi Calm Calm - N/A   Mostly Cloudy
5:33 AM 10.4 °F - 6.8 °F 85% 29.79 in 10.0 mi Calm Calm - N/A   Mostly Cloudy
5:53 AM 10.4 °F - 5.0 °F 79% 29.79 in 10.0 mi Calm Calm - N/A   Clear
6:13 AM 8.6 °F - 3.2 °F 79% 29.80 in 10.0 mi Calm Calm - N/A   Clear
6:33 AM 8.6 °F 0.1 °F 3.2 °F 79% 29.80 in 10.0 mi NW 4.6 mph - N/A   Clear
6:53 AM 8.6 °F - 3.2 °F 79% 29.81 in 10.0 mi Calm Calm - N/A   Clear
7:13 AM 3.2 °F - -0.4 °F 85% 29.82 in 10.0 mi Calm Calm - N/A   Clear
7:33 AM 5.0 °F -2.1 °F 1.4 °F 85% 29.82 in 10.0 mi NW 3.5 mph - N/A   Clear
7:53 AM 6.8 °F -2.0 °F 3.2 °F 85% 29.82 in 10.0 mi NW 4.6 mph - N/A   Clear
8:13 AM 6.8 °F - 1.4 °F 79% 29.83 in 10.0 mi Calm Calm - N/A   Clear
8:33 AM 8.6 °F 0.1 °F 3.2 °F 79% 29.83 in 10.0 mi NW 4.6 mph - N/A   Clear
8:53 AM 8.6 °F -1.3 °F 3.2 °F 79% 29.84 in 10.0 mi NNW 5.8 mph - N/A   Clear
9:13 AM 8.6 °F -1.3 °F 3.2 °F 79% 29.85 in 10.0 mi NW 5.8 mph - N/A   Clear
9:33 AM 10.4 °F 2.2 °F 3.2 °F 73% 29.85 in 10.0 mi NW 4.6 mph - N/A   Clear
9:53 AM 10.4 °F 4.0 °F 3.2 °F 73% 29.86 in 10.0 mi NNW 3.5 mph - N/A   Clear
10:13 AM 10.4 °F 2.2 °F 3.2 °F 73% 29.87 in 10.0 mi NW 4.6 mph - N/A   Clear
10:33 AM 12.2 °F 0.7 °F 3.2 °F 67% 29.87 in 10.0 mi NW 8.1 mph - N/A   Clear
10:53 AM 12.2 °F 0.7 °F 5.0 °F 73% 29.88 in 10.0 mi NNW 8.1 mph - N/A   Clear
11:13 AM 14.0 °F 2.9 °F 5.0 °F 67% 29.89 in 10.0 mi NW 8.1 mph - N/A   Clear
11:33 AM 15.8 °F 7.2 °F 6.8 °F 68% 29.90 in 10.0 mi NNW 5.8 mph - N/A   Mostly Cloudy
11:53 AM 15.8 °F 7.2 °F 6.8 °F 68% 29.90 in 10.0 mi NNW 5.8 mph - N/A   Overcast
12:13 PM 15.8 °F 10.2 °F 6.8 °F 68% 29.91 in 7.0 mi NW 3.5 mph - N/A   Overcast
12:33 PM 17.6 °F - 8.6 °F 68% 29.92 in 4.0 mi Calm Calm - N/A Snow Light Snow
12:53 PM 17.6 °F 10.7 °F 8.6 °F 68% 29.93 in 5.0 mi NNW 4.6 mph - N/A   Haze
1:13 PM 17.6 °F 9.3 °F 8.6 °F 68% 29.93 in 10.0 mi North 5.8 mph - N/A   Overcast
1:33 PM 19.4 °F 11.5 °F 8.6 °F 63% 29.94 in 7.0 mi NNW 5.8 mph - N/A   Mostly Cloudy
1:53 PM 19.4 °F 8.6 °F 10.4 °F 68% 29.94 in 4.0 mi NW 9.2 mph - N/A Snow Light Snow
2:14 PM 19.4 °F 10.4 °F 10.4 °F 68% 29.94 in 10.0 mi NNW 6.9 mph - N/A   Mostly Cloudy
2:33 PM 19.4 °F 12.8 °F 10.4 °F 68% 29.95 in 7.0 mi NNW 4.6 mph - N/A   Scattered Clouds
2:54 PM 21.2 °F 10.9 °F 10.4 °F 63% 29.95 in 10.0 mi NW 9.2 mph - N/A   Scattered Clouds
3:13 PM 19.4 °F 10.4 °F 8.6 °F 63% 29.96 in 10.0 mi NNW 6.9 mph 16.1 mph N/A   Scattered Clouds
3:33 PM 21.2 °F 16.4 °F 10.4 °F 63% 29.97 in 10.0 mi NW 3.5 mph - N/A   Scattered Clouds
3:53 PM 19.4 °F 11.5 °F 8.6 °F 63% 29.97 in 10.0 mi NNW 5.8 mph - N/A   Clear
4:13 PM 21.2 °F 12.6 °F 8.6 °F 58% 29.97 in 10.0 mi NW 6.9 mph - N/A   Clear
4:33 PM 21.2 °F 12.6 °F 3.2 °F 46% 29.98 in 10.0 mi North 6.9 mph - N/A   Scattered Clouds
4:53 PM 21.2 °F 11.7 °F 5.0 °F 50% 29.99 in 10.0 mi NW 8.1 mph - N/A   Clear
5:13 PM 21.2 °F 10.9 °F 3.2 °F 46% 30.00 in 10.0 mi NW 9.2 mph - N/A   Scattered Clouds
5:33 PM 21.2 °F 13.6 °F 3.2 °F 46% 30.01 in 10.0 mi NW 5.8 mph - N/A   Scattered Clouds
5:53 PM 21.2 °F 12.6 °F 1.4 °F 42% 30.01 in 10.0 mi NNW 6.9 mph - N/A   Clear
6:13 PM 21.2 °F 13.6 °F 3.2 °F 46% 30.02 in 10.0 mi NW 5.8 mph - N/A   Clear
6:33 PM 19.4 °F 12.8 °F 3.2 °F 49% 30.03 in 10.0 mi NW 4.6 mph - N/A   Clear
6:53 PM 19.4 °F - 3.2 °F 49% 30.04 in 10.0 mi Calm Calm - N/A   Clear
7:13 PM 19.4 °F - 3.2 °F 49% 30.04 in 10.0 mi Calm Calm - N/A   Clear
7:33 PM 17.6 °F - 5.0 °F 58% 30.05 in 10.0 mi Calm Calm - N/A   Clear
7:53 PM 15.8 °F - 8.6 °F 73% 30.06 in 10.0 mi Calm Calm - N/A   Mostly Cloudy
8:13 PM 14.0 °F - 8.6 °F 79% 30.06 in 10.0 mi Calm Calm - N/A   Scattered Clouds
8:33 PM 12.2 °F - 6.8 °F 79% 30.07 in 10.0 mi Calm Calm - N/A   Clear
8:53 PM 12.2 °F - 6.8 °F 79% 30.08 in 10.0 mi Calm Calm - N/A   Clear
9:13 PM 10.4 °F - 6.8 °F 85% 30.08 in 10.0 mi Calm Calm - N/A   Clear
9:33 PM 10.4 °F - 5.0 °F 79% 30.09 in 10.0 mi Calm Calm - N/A   Clear
9:53 PM 10.4 °F 4.0 °F 3.2 °F 73% 30.09 in 10.0 mi NW 3.5 mph - N/A   Clear
10:13 PM 10.4 °F 4.0 °F 3.2 °F 73% 30.10 in 10.0 mi NW 3.5 mph - N/A   Clear
10:33 PM 8.6 °F 2.0 °F 3.2 °F 79% 30.10 in 10.0 mi NW 3.5 mph - N/A   Clear
10:53 PM 8.6 °F 0.1 °F 3.2 °F 79% 30.10 in 10.0 mi NW 4.6 mph - N/A   Clear
11:13 PM 8.6 °F 0.1 °F 1.4 °F 73% 30.11 in 10.0 mi NW 4.6 mph - N/A   Clear
11:33 PM 6.8 °F -2.0 °F -0.4 °F 72% 30.11 in 10.0 mi NW 4.6 mph - N/A   Clear
11:53 PM 6.8 °F -0.1 °F 1.4 °F 79% 30.11 in 10.0 mi NW 3.5 mph - N/A   Clear